Regional Weather Roundup
Issued by NWS Lake Charles, LA

Home | Current Version | Previous Version | Text Only | Print | Product List | Glossary On
Versions: 1 2 3 4 5 6 7 8 9 10 11 12 13 14 15 16 17 18 19 20 21 22 23 24 25 26 27 28 29 30 31 32 33 34 35 36 37 38 39 40 41 42 43 44 45 46 47 48 49 50
000
ASUS44 KLCH 182310
RWRLCH
RWRLCH
REGIONAL WEATHER ROUNDUP
NATIONAL WEATHER SERVICE LAKE CHARLES LA
500 PM CST THU DEC 18 2014

Note: "fair" indicates few or no clouds below 12,000 feet with no
significant weather and/or obstructions to visibility.


ACROSS SOUTHEAST TEXAS

CITY           SKY/WX    TMP DP  RH WIND       PRES   REMARKS
BEAUMONT       CLOUDY    60  57  89 NE8       30.05S FOG
BEAUMONT CITY  CLOUDY    59  57  94 NE6       30.07R
ORANGE         MOCLDY    59  57  91 CALM      30.08S FOG
JASPER         CLOUDY    57  54  88 N6        30.11S
$$

ACROSS CENTRAL LOUISIANA

CITY           SKY/WX    TMP DP  RH WIND       PRES   REMARKS
LEESVILLE      CLOUDY    54  52  94 NE5       30.09S
FULLERTON      CLOUDY    55  51  86 NE3       30.08S
ALEXANDRIA INT CLOUDY    52  50  93 NE7       30.10S
ESLER FIELD    CLOUDY    53  49  86 CALM      30.12S
DERIDDER       CLOUDY    55  54  95 CALM      30.11S FOG
OAKDALE        CLOUDY    54  52  93 N3        30.10S
OPELOUSAS      CLOUDY    54  52  94 NE8       30.09S
$$

ACROSS SOUTHWEST AND SOUTH CENTRAL LOUISIANA

CITY           SKY/WX    TMP DP  RH WIND       PRES   REMARKS
SULPHUR        CLOUDY    61  55  79 N7        30.08R
LAKE CHARLES   CLOUDY    62  55  77 NE12      30.06S
CHENNAULT INT  CLOUDY    59  54  82 NE5       30.07S
CAMERON PHI    CLOUDY    63  61  94 NE9       30.08R
DEQUINCY       CLOUDY    55  55 100 CALM      30.09R
JENNINGS       CLOUDY    57  53  85 N8        30.07S
LAFAYETTE      CLOUDY    61  55  81 NE8       30.07S
NEW IBERIA     CLOUDY    66  57  72 E7        30.07F
ABBEVILLE      CLOUDY    63  58  84 CALM      30.06S
PATTERSON      CLOUDY    63  61  94 E6        30.08S
SALT POINT       N/A     64  60  87 SE8       30.04F
$$

SELECTED SITES ACROSS THE REGION

CITY           SKY/WX    TMP DP  RH WIND       PRES   REMARKS
HOUSTON BUSH   CLOUDY    66  61  84 NE13      30.03S
HOUSTON HOBBY  CLOUDY    69  63  81 NE7       30.02S
GALVESTON      CLOUDY    66  65  96 NE6       30.03S FOG
COLLEGE STAT   CLOUDY    60  55  83 N9        30.06S
CONROE         CLOUDY    63  56  78 NE8       30.06R
HUNTSVILLE     CLOUDY    61  56  83 NE5       30.07R
LUFKIN         CLOUDY    58  51  78 E3        30.09S
SHREVEPORT     CLOUDY    51  46  83 N7        30.12S
MONROE         CLOUDY    53  47  79 NE5       30.15R
NATCHEZ MS     CLOUDY    50  46  87 NE5       30.14S
BATON ROUGE    LGT RAIN  58  52  80 NE7       30.11R
N.O. INTL ARPT CLOUDY    64  54  69 E6        30.09R
SLIDELL        CLOUDY    61  52  72 NE6       30.11R
$$

MARINE REPORTS

STATION/POSITION TIME  TEMP    WIND        PRES    VSBY  WAVE
                       AIR SEA DIR/SP/G                  HT/PER
                 (UTC) (F)     (DEG/KT/KT) (MB)    (MI)  (FT/S)
BUOY 30 S HIGH I 2300   65 65   40/  4/  6 1016.5R         3/ 6
SEA RIM ST PARK  2300   62      40/  8/ 10 1018.1R
PORT ARTHUR      2300      62   30/  1/  5 1017.8R
SABINE PASS N    2300   62 62   20/  8/ 11 1017.6R
TEXAS POINT      NOT AVBL
CALCASIEU PASS   2300   62 61   50/  6/ 10   N/A
LK CHARLES BEACH 2300   58 62              1018.5R
MARSH ISLAND     NOT AVBL
FRESH WATER LOCK 2300   62 61   70/  6/ 10 1017.5R
AMERADA PASS     2300   62 53  130/  5/  9 1018.0F
$$



USA.gov is the U.S. government's official web portal to all federal, state and local government web resources and services.